[[{"header":{"parameterUnit":"m.s-1","parameterCategory":1,"la1":30.2991,"la2":30.254,"lo1":-89.0895,"lo2":-89.0444,"dy":0.0017,"dx":0.0017,"nx":28,"ny":28,"refTime":"2024-04-26T09:00:00:Z","depth":0,"parameterNumber":2,"parameterNumberName":"U-component_of_WINDS"},"data":[0,0,0,0,0,0,0,0,0,0,0,0,0,0,0,0,0,0,0,0,0,0,0,0,0,0,0,0,0,0,0,0,0,0,0,0,0,0,0,0,0,0,0,0,0,0,0,0,0,0,0,0,0,0,0,0,0,0,-4.1092,-4.1093,0,-4.1173,-4.1174,-4.1175,-4.1173,-4.1172,-4.117,-4.1169,-4.1251,-4.1254,-4.1258,0,0,0,0,0,0,0,0,0,0,0,0,0,-4.0935,-4.0938,-4.1092,-4.1093,-4.1094,-4.1173,-4.1174,-4.1176,-4.1173,-4.1171,-4.117,-4.1169,-4.125,-4.1254,-4.1258,0,0,0,0,0,0,0,0,0,0,0,0,0,-4.1009,-4.0939,-4.1092,-4.1102,-4.1104,-4.1173,-4.1174,-4.1176,-4.1173,-4.1171,-4.117,-4.1168,-4.1249,-4.1254,-4.1258,-4.1322,0,0,-4.1273,-4.1275,0,0,0,0,0,0,0,0,-4.1005,-4.1014,-4.11,-4.1102,-4.1104,-4.1161,-4.1149,-4.1225,-4.1174,-4.1147,-4.1169,-4.1167,-4.1223,-4.123,-4.1248,-4.1326,-4.1329,-4.1274,-4.1277,-4.1279,-4.128,0,0,0,0,0,0,0,-4.0999,-4.1011,-4.1124,-4.1101,-4.1104,-4.1103,-4.1112,-4.1164,-4.1193,-4.1149,-4.1149,-4.1159,-4.1223,-4.1244,-4.125,-4.1331,-4.1274,-4.1278,-4.1281,-4.1283,-4.1466,-4.1468,0,0,0,0,0,0,-4.0992,-4.1007,-4.1122,-4.1127,-4.1049,-4.1107,-4.1117,-4.1145,-4.1193,-4.1198,-4.116,-4.1158,-4.1236,-4.1245,-4.1253,-4.1331,-4.1279,-4.1283,-4.1286,-4.1464,-4.1466,-4.1468,0,0,0,0,0,0,-4.0989,-4.1002,-4.1118,-4.1067,-4.1082,-4.1112,-4.1143,-4.1147,-4.1167,-4.1201,-4.1206,-4.1175,-4.1235,-4.1246,-4.1305,-4.1334,-4.1285,-4.129,-4.1461,-4.1464,-4.1467,-4.1487,0,0,0,0,0,0,-4.0984,-4.1001,-4.1025,-4.1067,-4.1084,-4.1169,-4.1145,-4.115,-4.1176,-4.1174,-4.1217,-4.1222,-4.1235,-4.1298,-4.131,-4.1339,-4.1294,-4.1459,-4.1463,-4.1466,-4.1484,-4.149,-4.1495,0,0,0,0,0,-4.0979,-4.1027,-4.1026,-4.104,-4.1115,-4.1171,-4.118,-4.1194,-4.1178,-4.1203,-4.1225,-4.1221,-4.1329,-4.1304,-4.1318,-4.1349,-4.1457,-4.1462,-4.1466,-4.1481,-4.1489,-4.1495,0,0,0,0,0,0,-4.0986,-4.1033,-4.1032,-4.1096,-4.113,-4.117,-4.1201,-4.1202,-4.124,-4.1237,-4.1253,-4.1262,-4.1321,-4.1341,-4.1313,-4.1414,-4.1391,-4.1399,-4.1398,-4.1406,-4.1411,-4.1404,-4.1298,0,0,0,0,0,-4.0996,-4.1037,-4.1075,-4.1127,-4.1144,-4.117,-4.1195,-4.1203,-4.1238,-4.1252,-4.1278,-4.1313,-4.1355,-4.1381,-4.1422,-4.1488,-4.1497,-4.1516,-4.1522,-4.1526,-4.1532,-4.1569,-4.1578,-4.1483,-4.1483,-4.1483,0,0,-4.1015,-4.1045,-4.107,-4.113,-4.1157,-4.1199,-4.1182,-4.1227,-4.1259,-4.1259,-4.1316,-4.1337,-4.1376,-4.1439,-4.1468,-4.1457,-4.1561,-4.1532,-4.1535,-4.1538,-4.1574,-4.1583,-4.1591,-4.1486,-4.1485,-4.1485,0,0,-4.1071,-4.1098,-4.1145,-4.1173,-4.1214,-4.1232,-4.1243,-4.1284,-4.1298,-4.1356,-4.1358,-4.1396,-4.1468,-4.1496,-4.152,-4.159,-4.1588,-4.1603,-4.1632,-4.1668,-4.1676,-4.1682,-4.1707,-4.1716,-4.1609,-4.1609,-4.1609,0,-4.1089,-4.1153,-4.1169,-4.1215,-4.1241,-4.1245,-4.1293,-4.1319,-4.1371,-4.139,-4.1378,-4.1469,-4.1496,-4.1565,-4.1583,-4.1602,-4.1616,-4.1597,-4.1673,-4.168,-4.1687,-4.171,-4.172,-4.161,-4.161,-4.161,-4.161,0,-4.1173,-4.1218,-4.1251,-4.1302,-4.1333,-4.1379,-4.1403,-4.1432,-4.1439,-4.1457,-4.1517,-4.155,-4.1597,-4.1615,-4.1621,-4.1686,-4.1678,-4.167,-4.1647,-4.1697,-4.1719,-4.1729,-4.1612,-4.1612,-4.1611,-4.1611,0,0,-4.1233,-4.1295,-4.1307,-4.133,-4.1378,-4.1413,-4.1461,-4.1508,-4.1532,-4.1569,-4.1609,-4.1672,-4.1665,-4.1692,-4.1702,-4.1734,-4.1787,-4.1722,-4.1723,-4.1732,-4.186,-4.1865,-4.1875,-4.1787,-4.1789,-4.179,-4.1857,0,-4.1294,-4.1378,-4.1395,-4.1468,-4.1509,-4.1515,-4.1557,-4.159,-4.161,-4.1649,-4.1671,-4.1714,-4.1702,-4.1718,-4.175,-4.1774,-4.1813,-4.177,-4.1824,-4.1826,-4.1812,-4.1887,-4.1892,-4.1953,-4.1866,-4.1867,-4.1868,0,-4.1374,-4.1414,-4.1491,-4.1535,-4.1553,-4.159,-4.1635,-4.1672,-4.1711,-4.1724,-4.1755,-4.1762,-4.1813,-4.179,-4.1859,-4.183,-4.1854,-4.1869,-4.1872,-4.1875,-4.1848,-4.1892,-4.1973,-4.1981,-4.1882,-4.1881,-4.188,0,-4.1409,-4.1483,-4.1538,-4.1559,-4.1611,-4.1637,-4.166,-4.1698,-4.1725,-4.1766,-4.1784,-4.1829,-4.1854,-4.1889,-4.1909,-4.189,-4.1977,-4.1956,-4.1988,-4.1988,-4.2004,-4.2002,-4.2088,-4.2022,-4.2022,-4.2022,-4.2022,0,-4.1474,-4.1521,-4.1555,-4.1589,-4.1642,-4.1663,-4.1715,-4.1737,-4.1771,-4.181,-4.1819,-4.1855,-4.188,-4.192,-4.1936,-4.1991,-4.2003,-4.2014,-4.2017,-4.2012,-4.201,-4.2026,-4.2022,-4.2025,-4.2024,-4.2024,-4.2023,0,-4.1521,-4.1546,-4.1607,-4.1652,-4.1665,-4.1702,-4.1741,-4.1774,-4.1795,-4.1845,-4.1858,-4.189,-4.1938,-4.1962,-4.2022,-4.2033,-4.2095,-4.2096,-4.2081,-4.2082,-4.2113,-4.211,-4.2211,-4.2225,-4.2151,-4.2152,-4.2152,0,-4.1559,-4.1596,-4.1645,-4.1672,-4.1696,-4.1739,-4.1768,-4.179,-4.182,-4.1869,-4.1897,-4.1946,-4.1985,-4.2062,-4.2091,-4.2137,-4.2139,-4.2172,-4.2146,-4.214,-4.2138,-4.2135,-4.2139,-4.2175,-4.2176,-4.2177,-4.2177,0,-4.1625,-4.1636,-4.1677,-4.1724,-4.1758,-4.1796,-4.1833,-4.1854,-4.1883,-4.1916,-4.1966,-4.1997,-4.2058,-4.2107,-4.2155,-4.2179,-4.2183,-4.2186,-4.2195,-4.2189,-4.2179,-4.2184,-4.2092,-4.2182,-4.2182,-4.2181,-4.2181,-4.2181,-4.1668,-4.1701,-4.1742,-4.1788,-4.1818,-4.1853,-4.1887,-4.1913,-4.1955,-4.2007,-4.2018,-4.2071,-4.2111,-4.2176,-4.2202,-4.2244,-4.2237,-4.2251,-4.2255,-4.2257,-4.2258,-4.2174,-4.2253,-4.2253,-4.2253,-4.2253,-4.2253,0,-4.1734,-4.1761,-4.1803,-4.1855,-4.1892,-4.1894,-4.1935,-4.1965,-4.2012,-4.2049,-4.2089,-4.2146,-4.2194,-4.2228,-4.2276,-4.2303,-4.2306,-4.2315,-4.2312,-4.2318,-4.2262,-4.2249,-4.2312,-4.2312,-4.2312,-4.2312,-4.2312,-4.2312,-4.1772,-4.1828,-4.1844,-4.1915,-4.1942,-4.1994,-4.2017,-4.205,-4.208,-4.2144,-4.2183,-4.2206,-4.2242,-4.2293,-4.2337,-4.2346,-4.2363,-4.2372,-4.2381,-4.2328,-4.2321,-4.2315,-4.2302,-4.2376,-4.2376,-4.2432,-4.2433,-4.2433]},{"header":{"parameterUnit":"m.s-1","parameterCategory":1,"la1":30.2991,"la2":30.254,"lo1":-89.0895,"lo2":-89.0444,"dy":0.0017,"dx":0.0017,"nx":28,"ny":28,"refTime":"2024-04-26T09:00:00:Z","depth":0,"parameterNumber":3,"parameterNumberName":"V-component_of_WINDS"},"data":[0,0,0,0,0,0,0,0,0,0,0,0,0,0,0,0,0,0,0,0,0,0,0,0,0,0,0,0,0,0,0,0,0,0,0,0,0,0,0,0,0,0,0,0,0,0,0,0,0,0,0,0,0,0,0,0,0,0,5.1692,5.1693,0,5.1749,5.175,5.175,5.1754,5.1753,5.1752,5.1752,5.1806,5.1808,5.181,0,0,0,0,0,0,0,0,0,0,0,0,0,5.1585,5.1587,5.1692,5.1693,5.1694,5.1749,5.175,5.1751,5.1754,5.1753,5.1752,5.1752,5.1805,5.1808,5.181,0,0,0,0,0,0,0,0,0,0,0,0,0,5.1636,5.1588,5.1692,5.1702,5.1704,5.1749,5.175,5.1751,5.1754,5.1753,5.1752,5.1751,5.1804,5.1807,5.181,5.1848,0,0,5.182,5.1821,0,0,0,0,0,0,0,0,5.1633,5.164,5.17,5.1702,5.1703,5.1744,5.1732,5.1783,5.1754,5.1735,5.1752,5.1751,5.1786,5.179,5.1803,5.1851,5.1853,5.182,5.1822,5.1823,5.1824,0,0,0,0,0,0,0,5.1629,5.1637,5.1715,5.1701,5.1703,5.1703,5.1709,5.1742,5.1765,5.1736,5.1737,5.1744,5.1786,5.18,5.1804,5.1854,5.182,5.1823,5.1825,5.1826,5.1939,5.194,0,0,0,0,0,0,5.1624,5.1634,5.1713,5.1716,5.1665,5.1706,5.1713,5.1731,5.1764,5.1769,5.1744,5.1744,5.1795,5.18,5.1806,5.1854,5.1823,5.1826,5.1828,5.1937,5.1939,5.194,0,0,0,0,0,0,5.1622,5.1631,5.1711,5.1676,5.1686,5.1709,5.173,5.1733,5.1747,5.1771,5.1774,5.1754,5.1795,5.1802,5.1839,5.1856,5.1827,5.183,5.1936,5.1938,5.194,5.1949,0,0,0,0,0,0,5.1619,5.1631,5.1645,5.1676,5.1688,5.1743,5.1731,5.1735,5.1752,5.1752,5.1781,5.1784,5.1794,5.1834,5.1842,5.186,5.1833,5.1935,5.1937,5.1939,5.1948,5.1951,5.1954,0,0,0,0,0,5.1615,5.1644,5.1646,5.1655,5.1707,5.1744,5.175,5.1762,5.1754,5.1769,5.1785,5.1784,5.1853,5.1838,5.1846,5.1865,5.1934,5.1936,5.1939,5.1946,5.1951,5.1954,0,0,0,0,0,0,5.1613,5.1648,5.1651,5.1691,5.1715,5.1744,5.1763,5.1766,5.1792,5.179,5.1803,5.1809,5.1846,5.1859,5.1842,5.1905,5.1892,5.1897,5.1895,5.1899,5.1903,5.1898,5.1835,0,0,0,0,0,5.1618,5.1646,5.1675,5.1707,5.1719,5.174,5.1756,5.1764,5.1788,5.1798,5.1816,5.1839,5.1866,5.1884,5.191,5.195,5.1957,5.1968,5.1971,5.1974,5.1977,5.2001,5.2006,5.1949,5.1949,5.1949,0,0,5.1626,5.1649,5.1666,5.1708,5.1727,5.1755,5.1748,5.1777,5.1799,5.1802,5.1838,5.1853,5.1879,5.1919,5.1937,5.1931,5.1995,5.1977,5.1979,5.1981,5.2004,5.201,5.2015,5.1951,5.195,5.195,0,0,5.1657,5.1677,5.1708,5.1728,5.1758,5.1772,5.1779,5.181,5.182,5.1858,5.1861,5.1886,5.1933,5.1952,5.1968,5.201,5.201,5.2018,5.2035,5.2059,5.2063,5.2067,5.2083,5.2088,5.2022,5.2022,5.2022,0,5.1664,5.1708,5.1722,5.1753,5.1772,5.1779,5.181,5.1828,5.1865,5.1877,5.1871,5.1931,5.1949,5.1994,5.2005,5.2017,5.2026,5.2014,5.2062,5.2066,5.207,5.2085,5.2091,5.2022,5.2022,5.2022,5.2022,0,5.1715,5.1745,5.1766,5.1804,5.1825,5.1856,5.1875,5.1895,5.1902,5.1916,5.1955,5.1978,5.201,5.2021,5.2027,5.2068,5.2063,5.2059,5.2046,5.2076,5.209,5.2096,5.2024,5.2023,5.2023,5.2023,0,0,5.1743,5.1791,5.1799,5.1817,5.1853,5.1876,5.1908,5.1941,5.1958,5.1984,5.2011,5.2051,5.2049,5.2067,5.2075,5.2096,5.2129,5.2089,5.209,5.2096,5.2177,5.2179,5.2186,5.213,5.2131,5.2132,5.2175,0,5.1778,5.1836,5.1851,5.19,5.1929,5.1938,5.1965,5.199,5.2005,5.2032,5.2048,5.2077,5.2071,5.2082,5.2103,5.2121,5.2145,5.2118,5.2155,5.2156,5.2148,5.2193,5.2196,5.2235,5.218,5.2181,5.2182,0,5.1826,5.1855,5.1907,5.1942,5.1955,5.1979,5.2012,5.2038,5.2066,5.2076,5.2098,5.2106,5.2139,5.2126,5.2172,5.2153,5.217,5.2181,5.2183,5.2186,5.217,5.2198,5.2247,5.2253,5.2191,5.219,5.2189,0,5.1842,5.1895,5.1933,5.1949,5.1989,5.2007,5.2024,5.2052,5.2072,5.2101,5.2114,5.2146,5.2163,5.2187,5.2203,5.2191,5.2248,5.2236,5.2257,5.2257,5.2268,5.2267,5.232,5.2279,5.2279,5.2279,5.2279,0,5.1879,5.1911,5.1942,5.1965,5.2002,5.202,5.2055,5.2073,5.2098,5.2125,5.2134,5.2159,5.2179,5.2207,5.2219,5.2257,5.2264,5.2273,5.2275,5.2272,5.2271,5.2282,5.228,5.228,5.228,5.228,5.2279,0,5.1903,5.1925,5.1967,5.2004,5.2014,5.2039,5.207,5.2093,5.211,5.2144,5.2154,5.2179,5.2213,5.2232,5.2273,5.2282,5.2324,5.2325,5.2314,5.2315,5.2336,5.2334,5.2398,5.2408,5.236,5.236,5.2361,0,5.1925,5.195,5.199,5.201,5.2028,5.206,5.2081,5.2101,5.2122,5.2159,5.2178,5.2213,5.2241,5.2295,5.2317,5.2349,5.2351,5.2372,5.2356,5.2352,5.2352,5.235,5.2353,5.2374,5.2374,5.2375,5.2375,0,5.1962,5.1972,5.2003,5.2039,5.2065,5.2093,5.2121,5.2137,5.2161,5.2185,5.2221,5.2243,5.2288,5.2322,5.2357,5.2374,5.2379,5.238,5.2387,5.2383,5.2376,5.2381,5.2322,5.2378,5.2378,5.2378,5.2378,5.2377,5.1985,5.2009,5.2042,5.2077,5.2101,5.2128,5.2152,5.2173,5.2204,5.2243,5.2252,5.229,5.232,5.2368,5.2387,5.2416,5.2412,5.2422,5.2424,5.2426,5.2427,5.2372,5.2423,5.2423,5.2422,5.2422,5.2422,0,5.2023,5.2046,5.2078,5.2119,5.2146,5.2151,5.2183,5.2206,5.2239,5.2268,5.2297,5.2339,5.2373,5.2399,5.2435,5.2453,5.2457,5.2462,5.246,5.2465,5.2429,5.242,5.2459,5.2459,5.2459,5.2459,5.2459,5.2459,5.2046,5.2087,5.2102,5.2155,5.2177,5.2216,5.2234,5.2259,5.2282,5.2329,5.2359,5.2376,5.2404,5.2442,5.2474,5.2481,5.2493,5.2498,5.2505,5.2471,5.2467,5.2463,5.2455,5.2501,5.2501,5.2539,5.2539,5.254]}]]